sat.trackr.live / text

‹ back to catalog

STARLINK-31357

NORAD 59502 · 2024-071U

PAYLOAD ACTIVE UNKNOWN

§ Identity

Operator
Country
US
Launch date
2024-04-13
Launch site
AFETR
Launch vehicle
Mass (kg)
RCS (m²)

Purposes: comms

External: N2YO · Heavens-Above · Gunter

§ Orbital elements

Epoch: 2026-05-24T19:30:41.609376Z

Period
94.27 min
Inclination
43.0024°
Eccentricity
0.0002241
Mean motion
15.27597900 rev/d
Perigee alt
481.5 km
Apogee alt
484.5 km
Semi-major
6,861.1 km
B*
1.7329e-4
RAAN
270.1879°
Arg perigee
274.1560°
Mean anomaly
85.9036°
Rev number
11,984

§ Raw data

STARLINK-313571 59502U 24071U   26144.81298159  .00004512  00000+0  17329-3 0  99912 59502  43.0024 270.1879 0002241 274.1560  85.9036 15.27597900119843

JSON: /api/v1/satellites/59502 · /tle

For live sub-satellite position, see the globe view (requires WebGL).

§ Visibility from observer

Set your observer location to see the next 7 days of passes ≥ 10°. The values pass through the URL so the page stays shareable.

No JS? Fill the form by hand. The geolocation button needs JavaScript.